Date String (YYYY-MM-DD hh:mm:ss) UTC,Instrument flags,absolute air pressure of the measurement (hPa),sample flow rate (lpm),inlet stack bypass flow (lpm),air temperature of the measurement (°C),ambient temperature measured by the external sensor (°C),aerosol sample conditioner tube jacket temperature (°C),OPC LED temperature (°C),internal box temperature (°C),relative humidity of the measurement (%),span deviation,mass concentration of particles derived from Lorenz-Mie calculation of OPC scattering (μg/m³),mass concentration of particles derived from Lorenz-Mie calculation of OPC scattering (μg/m³),mass concentration of particles derived from Lorenz-Mie calculation of OPC scattering (μg/m³)
DateTimeUTC,F1_M11,P_M11,Q1_M11,Q2_M11,T1_M11,T2_M11,T3_M11,T4_M11,T5_M11,U1_M11,ZSPAN_M11,X0_M11,X2_M11,X1_M11
2024-01-01 03:00:00,SystemResetWarning,0831.7,5.00,000.00,023.8,022.4,000.0,032.2,025.1,13.0,0000.0,0014.51,0006.14,0005.43
2024-01-01 03:01:00,SystemResetWarning,0831.7,5.00,000.00,023.7,022.4,000.0,032.2,025.0,13.0,0001.2,0013.37,0006.19,0005.44
2024-01-01 03:02:00,SystemResetWarning,0831.8,5.00,000.00,023.7,022.4,000.0,032.2,025.1,13.0,0001.2,0013.01,0006.23,0005.44
2024-01-01 03:03:00,SystemResetWarning,0831.8,5.00,000.00,023.7,022.3,000.0,032.1,025.0,13.0,0000.0,0012.72,0006.21,0005.45
2024-01-01 03:04:00,SystemResetWarning,0831.9,5.00,000.00,023.7,022.3,000.0,032.1,025.0,13.0,0000.0,0012.71,0006.20,0005.46
2024-01-01 03:05:00,SystemResetWarning,0832.0,5.00,000.00,023.7,022.3,000.0,032.1,025.0,13.0,0000.0,0012.53,0006.19,0005.46
2024-01-01 03:06:00,SystemResetWarning,0832.3,4.99,000.00,023.7,022.3,000.0,032.1,025.0,13.1,0000.0,0012.53,0006.20,0005.47
2024-01-01 03:07:00,SystemResetWarning,0832.2,4.99,000.00,023.7,022.3,000.0,032.1,025.0,13.1,0000.0,0012.44,0006.15,0005.45
2024-01-01 03:08:00,SystemResetWarning,0832.2,4.99,000.00,023.7,022.3,000.0,032.1,025.0,13.1,0000.0,0013.16,0006.02,0005.38
2024-01-01 03:09:00,SystemResetWarning,0832.0,5.00,000.00,023.6,022.3,000.0,032.1,025.0,13.1,0000.0,0013.32,0005.98,0005.35
2024-01-01 03:10:00,SystemResetWarning,0831.9,5.01,000.00,023.6,022.3,000.0,032.0,024.9,13.1,0000.0,0012.56,0005.94,0005.33
2024-01-01 03:11:00,SystemResetWarning,0831.7,5.01,000.00,023.6,022.3,000.0,032.0,024.9,13.1,0000.0,0013.24,0005.91,0005.32
2024-01-01 03:12:00,SystemResetWarning,0831.7,5.01,000.00,023.6,022.3,000.0,032.0,024.9,13.1,0000.0,0013.65,0005.87,0005.32
2024-01-01 03:13:00,SystemResetWarning,0831.7,5.00,000.00,023.6,022.2,000.0,032.0,024.9,13.1,0000.0,0014.15,0005.87,0005.32
2024-01-01 03:14:00,SystemResetWarning,0831.7,5.00,000.00,023.6,022.2,000.0,032.0,024.9,13.1,0000.0,0013.72,0005.85,0005.31
2024-01-01 03:15:00,SystemResetWarning,0831.7,4.99,000.00,023.6,022.2,000.0,032.0,024.9,13.1,0000.0,0013.32,0005.85,0005.30
2024-01-01 03:16:00,SystemResetWarning,0831.7,4.99,000.00,023.6,022.2,000.0,032.0,024.9,13.1,0000.0,0014.11,0005.90,0005.30
2024-01-01 03:17:00,SystemResetWarning,0831.7,5.00,000.00,023.5,022.2,000.0,031.9,024.9,13.2,0000.0,0014.41,0005.91,0005.30
2024-01-01 03:18:00,SystemResetWarning,0831.7,5.00,000.00,023.5,022.2,000.0,031.9,024.9,13.2,0000.0,0014.78,0005.93,0005.30
2024-01-01 03:19:00,SystemResetWarning,0831.7,5.00,000.00,023.5,022.2,000.0,031.9,024.9,13.2,0000.0,0014.80,0005.96,0005.30
2024-01-01 03:20:00,SystemResetWarning,0831.7,5.01,000.00,023.5,022.2,000.0,031.9,024.9,13.2,0000.0,0014.56,0005.99,0005.31
2024-01-01 03:21:00,SystemResetWarning,0831.7,5.01,000.00,023.5,022.2,000.0,031.9,024.8,13.2,0000.0,0014.97,0006.06,0005.34
2024-01-01 03:22:00,SystemResetWarning,0831.7,4.98,000.00,023.5,022.1,000.0,031.9,024.8,13.2,0000.0,0014.22,0006.13,0005.37
2024-01-01 03:23:00,SystemResetWarning,0831.7,5.00,000.00,023.4,022.1,000.0,031.9,024.8,13.2,0000.0,0013.24,0006.16,0005.39
2024-01-01 03:24:00,SystemResetWarning,0831.7,5.00,000.00,023.4,022.1,000.0,031.9,024.8,13.2,0000.0,0012.94,0006.18,0005.42
2024-01-01 03:25:00,SystemResetWarning,0831.7,5.00,000.00,023.4,022.1,000.0,031.8,024.8,13.2,0000.0,0013.39,0006.20,0005.46
2024-01-01 03:26:00,SystemResetWarning,0831.7,5.00,000.00,023.4,022.1,000.0,031.8,024.8,13.2,0000.0,0013.98,0006.27,0005.50
2024-01-01 03:27:00,SystemResetWarning,0831.7,5.00,000.00,023.4,022.1,000.0,031.8,024.8,13.2,0001.3,0013.35,0006.29,0005.52
2024-01-01 03:28:00,SystemResetWarning,0831.8,5.00,000.00,023.4,022.1,000.0,031.8,024.7,13.2,0002.0,0012.87,0006.27,0005.54
2024-01-01 03:29:00,SystemResetWarning,0832.2,5.00,000.00,023.4,022.0,000.0,031.8,024.7,13.3,0000.7,0012.65,0006.28,0005.57
2024-01-01 03:30:00,SystemResetWarning,0832.3,5.00,000.00,023.4,022.0,000.0,031.8,024.7,13.3,0000.0,0011.87,0006.30,0005.60
2024-01-01 03:31:00,SystemResetWarning,0832.3,5.00,000.00,023.3,022.0,000.0,031.8,024.7,13.3,0000.0,0012.09,0006.32,0005.62
2024-01-01 03:32:00,SystemResetWarning,0832.1,5.00,000.00,023.3,022.0,000.0,031.8,024.7,13.3,0000.0,0011.74,0006.29,0005.63
2024-01-01 03:33:00,SystemResetWarning,0832.0,5.01,000.00,023.3,022.0,000.0,031.8,024.6,13.3,0000.0,0011.51,0006.28,0005.64
2024-01-01 03:34:00,SystemResetWarning,0832.1,5.01,000.00,023.3,022.0,000.0,031.7,024.6,13.3,0000.0,0011.94,0006.28,0005.65
2024-01-01 03:35:00,SystemResetWarning,0832.0,5.00,000.00,023.3,022.0,000.0,031.7,024.6,13.3,0000.0,0013.19,0006.28,0005.66
2024-01-01 03:36:00,SystemResetWarning,0832.3,4.99,000.00,023.3,021.9,000.0,031.7,024.6,13.3,0000.0,0012.81,0006.29,0005.66
2024-01-01 03:37:00,SystemResetWarning,0832.2,5.00,000.00,023.3,021.9,000.0,031.7,024.6,13.3,0000.0,0012.58,0006.28,0005.67
2024-01-01 03:38:00,SystemResetWarning,0832.3,5.00,000.00,023.3,021.9,000.0,031.7,024.6,13.3,0000.0,0012.59,0006.27,0005.68
2024-01-01 03:39:00,SystemResetWarning,0832.3,5.00,000.00,023.2,021.9,000.0,031.7,024.6,13.3,0000.0,0012.79,0006.28,0005.70
2024-01-01 03:40:00,SystemResetWarning,0832.0,5.00,000.00,023.2,021.9,000.0,031.6,024.6,13.4,0000.0,0013.22,0006.31,0005.72
2024-01-01 03:41:00,SystemResetWarning,0831.7,5.00,000.00,023.2,021.8,000.0,031.6,024.6,13.4,0000.0,0013.18,0006.35,0005.74
2024-01-01 03:42:00,SystemResetWarning,0831.7,5.00,000.00,023.2,021.8,000.0,031.6,024.6,13.4,0000.0,0013.03,0006.35,0005.74
2024-01-01 03:43:00,SystemResetWarning,0831.7,5.00,000.00,023.2,021.8,000.0,031.6,024.5,13.4,0000.0,0013.47,0006.39,0005.77
2024-01-01 03:44:00,SystemResetWarning,0831.7,5.00,000.00,023.2,021.8,000.0,031.6,024.5,13.4,0000.0,0013.52,0006.41,0005.79
2024-01-01 03:45:00,SystemResetWarning,0831.7,5.00,000.00,023.2,021.8,000.0,031.6,024.5,13.4,0000.0,0013.67,0006.46,0005.81
2024-01-01 03:46:00,SystemResetWarning,0831.7,5.00,000.00,023.1,021.8,000.0,031.6,024.5,13.4,0000.0,0012.18,0006.50,0005.83
2024-01-01 03:47:00,SystemResetWarning,0831.7,4.99,000.00,023.1,021.8,000.0,031.6,024.5,13.4,0000.0,0012.08,0006.51,0005.84
2024-01-01 03:48:00,SystemResetWarning,0831.7,5.00,000.00,023.1,021.8,000.0,031.5,024.5,13.4,0000.0,0011.79,0006.49,0005.85
2024-01-01 03:49:00,SystemResetWarning,0831.7,5.00,000.00,023.1,021.8,000.0,031.5,024.4,13.4,0000.0,0012.04,0006.49,0005.86
2024-01-01 03:50:00,SystemResetWarning,0831.7,5.00,000.00,023.1,021.7,000.0,031.5,024.4,13.4,0000.0,0012.19,0006.53,0005.89
2024-01-01 03:51:00,SystemResetWarning,0831.7,5.00,000.00,023.1,021.7,000.0,031.5,024.4,13.5,0000.0,0012.01,0006.55,0005.90
2024-01-01 03:52:00,SystemResetWarning,0831.7,5.00,000.00,023.1,021.7,000.0,031.5,024.4,13.5,0000.0,0012.00,0006.53,0005.90
2024-01-01 03:53:00,SystemResetWarning,0831.7,5.00,000.00,023.1,021.7,000.0,031.5,024.4,13.4,0000.0,0011.97,0006.55,0005.89
2024-01-01 03:54:00,SystemResetWarning,0831.7,5.01,000.00,023.0,021.7,000.0,031.5,024.4,13.4,0000.0,0011.63,0006.54,0005.88
2024-01-01 03:55:00,SystemResetWarning,0831.7,5.00,000.00,023.0,021.7,000.0,031.5,024.4,13.5,0000.0,0012.24,0006.50,0005.85
2024-01-01 03:56:00,SystemResetWarning,0831.7,5.00,000.00,023.0,021.7,000.0,031.4,024.4,13.5,0000.0,0012.12,0006.47,0005.82
2024-01-01 03:57:00,SystemResetWarning,0831.7,4.99,000.00,023.0,021.6,000.0,031.4,024.4,13.5,0000.0,0012.10,0006.45,0005.79
2024-01-01 03:58:00,SystemResetWarning,0831.6,5.00,000.00,023.0,021.6,000.0,031.4,024.4,13.5,0000.0,0011.95,0006.39,0005.79
2024-01-01 03:59:00,SystemResetWarning,0831.7,4.99,000.00,023.0,021.6,000.0,031.4,024.3,13.5,0000.0,0012.88,0006.40,0005.77
